{"data":{"norad_id":65155,"intl_designator":"2025-171Z","name":"KUIPER-00119","alt_names":[],"object_type":"PAYLOAD","status":"ACTIVE","operator":null,"country":"US","launch_date":"2025-08-11","launch_site_code":"AFETR","launch_vehicle":null,"mission":null,"orbit_class":"UNKNOWN","rcs_meters":null,"size_class":null,"mass_kg":null,"dimensions":null,"purposes":[],"wikipedia_slug":null,"has_3d_model":false,"image_url":null,"decayed_at":null,"tle_current":{"epoch":"2026-09-21T13:00:55.369728Z","epoch_age_seconds":75310,"freshness":"FRESH","line1":"1 65155U 25171Z   26264.54230752  .00002203  00000+0  31779-3 0  9992","line2":"2 65155  51.9025  17.1213 0000569  86.5996 273.5031 14.79939196 61819","mean_motion":14.79939196,"eccentricity":5.69e-5,"inclination_deg":51.9025,"raan_deg":17.1213,"arg_perigee_deg":86.5996,"mean_anomaly_deg":273.5031,"bstar":0.00031779,"rev_number":6181,"period_min":97.301294802655,"perigee_km":629.11733454692,"apogee_km":629.91480546629,"semimajor_km":7007.6530700066,"source":"CELESTRAK","updated_at":"2026-09-22T09:00:30.158481Z"}}}